Temp
5 5 6 6 6 7 6 6 6 7 6 6 7 7 9 11 11 13 13 14 14 14 15 15 16 17 19 19 17 19 20 18 18 20 22 23 23 22 21 18 19 17 15 17
4 5 5 6 6 6 6 7 6 6 7 6 7 8 9 10 10 11 12 13 13 14 14 14 15 17 19 17 17 16 16 18 18 19 21 22 22 22 23 21 18 19 17 18
4 5 5 5 5 6 6 5 6 6 6 7 8 8 8 9 11 10 10 11 12 13 13 14 14 15 17 16 17 14 15 17 18 18 20 20 21 21 23 21 16 19 18 20
4 4 5 5 5 6 6 3 5 6 7 7 7 8 9 9 9 11 11 10 11 11 11 13 13 15 15 17 14 15 15 14 18 20 21 22 21 22 22 22 20 19 20 20
4 4 5 5 5 5 6 3 5 6 7 8 7 8 8 9 10 11 10 11 12 12 11 12 13 13 14 15 15 14 13 13 15 18 20 21 22 21 22 23 21 20 21 20
4 4 5 5 5 5 6 6 5 8 8 8 7 7 8 9 9 10 11 12 11 11 12 12 12 12 13 14 15 13 12 12 12 14 19 20 18 20 21 21 21 21 19 21
4 5 5 5 5 5 5 5 6 6 7 8 7 9 9 9 10 9 11 12 11 13 14 12 12 12 12 12 13 14 11 11 11 12 13 16 20 21 21 20 21 22 21 21
5 5 5 5 5 5 5 4 5 6 7 7 8 9 9 9 9 9 10 11 12 12 12 11 11 10 12 12 13 13 13 12 11 12 13 17 18 19 19 20 21 22 22 22
4 4 4 5 5 5 5 4 4 5 6 7 9 9 9 9 8 8 9 11 11 12 10 9 10 9 12 13 12 13 11 11 11 11 12 13 17 19 21 22 18 21 21 21
4 4 4 4 5 5 4 5 4 4 4 6 8 9 9 10 9 8 9 9 10 11 8 7 9 10 13 12 11 10 9 8 10 11 12 12 16 17 21 19 19 21 22 22
4 4 4 5 5 4 4 4 4 4 4 5 7 9 9 9 10 9 9 10 10 9 9 8 8 7 11 12 13 12 11 10 10 11 12 12 16 17 17 15 15 16 16 17
5 5 5 5 5 4 4 5 4 4 5 5 7 8 10 11 10 10 9 10 10 10 9 8 8 7 6 11 12 15 12 13 12 13 13 15 15 16 16 15 15 16 15 15
5 5 5 5 5 5 4 5 4 4 5 5 5 7 9 9 10 9 9 9 12 11 9 8 9 10 9 10 10 14 14 15 14 13 16 16 17 16 16 15 16 17 16 16
5 5 5 5 5 5 5 5 5 5 5 5 7 7 6 10 10 10 9 9 10 10 8 8 6 8 10 9 12 13 15 14 15 14 16 17 17 17 17 17 17 17 17 16
5 5 5 5 5 5 5 5 5 6 6 5 6 8 8 10 9 9 9 8 9 9 9 7 7 8 10 9 10 11 12 12 12 14 15 15 16 18 18 17 18 17 17 17
5 5 5 5 5 5 5 5 5 6 7 6 6 7 8 8 9 9 8 8 8 8 8 7 8 10 10 8 9 9 8 8 10 10 11 13 14 12 13 15 14 15 14 15
5 5 5 5 5 4 5 5 5 6 8 6 5 7 8 8 8 8 8 8 9 9 9 8 9 9 10 6 9 7 7 7 9 9 11 12 11 12 11 12 12 12 12 10
5 5 5 5 4 5 6 5 7 6 6 7 5 5 6 8 7 8 7 8 8 8 9 8 9 9 9 8 5 6 6 6 8 7 9 9 10 11 10 10 10 8 5 4
5 5 5 4 5 5 5 6 7 8 7 4 2 4 7 6 6 6 7 6 6 7 5 8 9 6 4 4 4 4 4 4 6 8 7 8 7 6 5 6 5 3 2 1
6 7 4 3 4 5 9 7 4 4 5 5 3 4 5 6 5 5 6 3 5 8 7 7 5 3 3 2 3 2 2 3 4 6 5 5 6 4 2 1 1 0 -1 -1
6 3 4 4 6 6 4 4 4 5 5 4 5 6 5 5 6 6 4 6 6 6 8 6 4 3 2 1 1 1 1 2 2 3 2 3 3 2 1 -1 -1 -2 -3 -4
6 6 5 5 5 5 5 5 4 5 6 5 5 6 6 5 5 6 6 6 6 7 5 3 1 2 1 1 -0 -1 -1 -0 -0 -0 -1 -1 -1 -2 -2 -3 -4 -4 -5 -5
7 5 4 4 2 1 2 4 5 4 3 2 3 5 4 4 4 5 5 7 7 5 3 1 1 0 -0 -1 -1 -2 -2 -2 -3 -3 -3 -4 -4 -4 -4 -4 -5 -5 -6 -6
2 2 0 -0 -1 0 -0 -0 -0 1 1 1 2 4 5 3 5 5 6 4 4 1 1 -1 -0 -1 -1 -2 -2 -3 -3 -4 -4 -4 -4 -5 -5 -5 -5 -6 -6 -6 -6 -7
-1 -0 -2 -1 -1 -3 -2 -2 -1 -0 -1 1 3 4 4 3 3 2 4 2 -0 -0 -2 -1 -2 -2 -2 -2 -3 -3 -4 -4 -5 -5 -5 -5 -5 -5 -6 -6 -6 -6 -6 -7
-1 -2 -2 -2 -3 -3 -4 -4 -1 -1 -0 1 2 3 2 2 1 1 1 0 -1 -2 -3 -3 -3 -4 -4 -3 -3 -4 -4 -4 -5 -5 -5 -5 -6 -6 -6 -7 -7 -7 -7 -7
-1 -2 -3 -3 -2 -2 -2 -2 -2 -2 -0 0 1 -1 -0 1 0 -1 -2 -3 -3 -4 -4 -5 -5 -5 -5 -5 -5 -6 -6 -6 -6 -5 -5 -5 -6 -6 -6 -6 -7 -8 -8 -8
Height
738 740 742 744 748 753 758 758 760 763 771 780 771 756 749 749 748 748 748 744 741 745 741 739 734 728 722 714 717 719 710 722 729 716 703 698 703 711 718 744 748 748 761 748
727 729 732 735 739 743 748 748 755 758 761 760 752 750 753 755 755 749 747 742 738 738 744 746 732 726 714 716 718 725 727 719 730 724 709 697 706 704 701 712 727 734 754 739
714 717 720 724 728 733 741 746 748 749 749 737 742 751 751 748 746 752 750 745 741 740 742 741 735 728 719 715 717 722 723 719 717 713 711 704 703 701 696 706 738 730 728 717
701 703 707 711 716 723 730 734 730 724 722 731 739 742 735 738 742 742 741 743 746 746 744 737 734 727 726 715 720 718 728 728 708 700 694 694 695 695 697 700 705 719 714 710
687 690 693 698 704 711 715 723 718 719 718 722 737 734 718 728 732 736 739 738 732 735 733 738 735 732 728 724 719 723 735 732 716 699 691 687 689 693 688 686 696 698 697 701
672 676 680 684 690 699 696 705 707 709 708 716 724 696 713 725 736 731 730 730 733 731 735 733 730 727 725 722 720 725 734 743 739 721 694 691 702 676 685 688 687 688 703 691
657 661 666 670 675 682 688 693 698 704 699 703 683 702 716 719 724 729 724 724 730 726 723 724 724 724 721 721 721 719 731 741 744 735 722 715 668 667 671 680 676 675 677 678
646 650 655 660 667 674 680 687 691 692 690 688 694 690 701 717 719 720 720 721 724 723 725 731 728 732 722 718 716 718 718 729 741 739 724 692 676 673 675 679 676 667 666 668
636 641 646 652 659 666 674 678 686 691 689 673 679 691 697 705 712 722 712 719 719 722 728 733 731 734 716 714 720 719 727 725 730 743 737 721 677 666 657 660 687 659 658 660
625 630 636 642 650 659 667 670 678 690 692 679 680 680 686 695 703 709 710 713 719 720 732 741 731 722 704 712 718 731 735 741 733 732 728 709 676 667 653 685 679 657 655 652
611 617 623 631 640 649 660 665 671 678 686 682 679 677 679 686 691 699 700 708 707 713 721 726 724 730 706 705 698 706 718 728 727 725 719 714 670 661 677 683 672 667 661 657
598 603 611 619 628 638 652 660 666 675 679 681 678 679 676 675 679 686 693 692 693 697 707 717 711 719 722 701 704 689 707 699 708 701 703 685 669 663 669 675 672 665 665 661
586 592 600 608 618 628 638 650 658 671 675 682 682 678 677 675 676 679 686 689 685 688 691 701 700 698 698 702 705 691 686 683 688 692 674 674 666 666 661 663 660 657 657 657
573 580 589 598 609 621 633 639 648 662 672 678 672 671 674 671 673 675 680 683 683 684 691 695 702 700 685 697 688 684 677 679 677 676 672 666 661 659 654 653 652 649 653 653
558 568 579 591 604 617 628 637 646 654 662 669 668 664 667 668 672 672 680 680 682 685 691 697 696 689 688 689 690 683 684 685 682 672 662 660 657 646 642 648 648 652 653 650
556 563 576 590 604 616 624 637 648 651 654 659 667 660 662 665 668 670 675 678 679 682 687 694 688 678 681 695 691 695 693 701 689 681 672 660 658 657 653 652 652 651 650 651
565 565 581 596 609 617 625 630 632 646 653 660 663 660 658 661 666 671 671 672 674 678 683 687 682 682 678 694 685 696 698 697 688 680 665 662 665 664 662 660 658 657 657 658
578 583 592 606 618 626 630 627 629 645 653 650 664 668 664 661 669 670 670 674 675 676 673 675 678 678 682 690 705 703 702 698 690 684 674 673 670 668 667 664 662 664 669 670
593 599 605 614 621 628 631 635 642 648 649 658 668 671 665 663 667 668 670 671 680 672 681 673 674 689 708 715 711 708 708 705 698 689 685 680 679 682 677 674 673 676 682 681
607 608 611 621 626 628 631 637 645 647 649 651 663 661 664 664 669 673 673 679 681 673 675 674 692 714 718 718 715 712 709 705 702 689 684 684 681 687 690 691 691 690 692 694
608 618 625 630 629 631 639 653 658 657 661 662 662 660 665 668 668 669 675 672 675 676 671 678 703 718 722 722 721 717 713 711 706 700 699 695 694 696 701 703 701 701 702 701
615 621 630 632 636 640 645 654 658 658 656 663 662 661 661 666 666 668 670 671 673 673 677 698 722 725 725 724 725 721 720 716 712 709 709 708 706 710 711 710 711 710 710 711
621 626 636 641 654 665 669 658 658 663 669 672 668 663 666 667 669 670 669 665 666 676 698 721 732 733 732 731 731 729 726 724 721 720 719 718 718 718 719 719 719 718 719 723
637 645 665 671 685 683 688 687 685 681 678 677 672 668 664 668 667 668 664 684 683 706 721 738 737 737 737 736 735 733 734 732 731 730 729 729 730 732 732 730 729 729 732 735
660 667 687 691 693 695 691 689 685 683 681 677 671 668 671 676 677 686 683 696 722 729 745 745 746 744 742 741 740 740 741 743 742 740 737 739 741 740 740 741 742 741 742 743
678 692 698 699 700 698 696 694 688 684 680 678 676 674 682 691 701 704 712 719 738 745 751 752 752 751 750 749 750 751 752 750 748 747 747 749 750 750 752 753 752 752 751 752
695 707 708 705 702 702 700 695 692 687 683 686 686 699 706 700 710 724 735 744 750 754 758 759 758 757 758 758 758 759 758 757 755 753 755 757 760 762 761 761 763 762 763 765
Wind_Speed
34 33 29 27 26 24 24 7 5 20 30 7 6 19 12 4 10 7 12 6 6 7 4 4 4 4 4 7 5 4 12 6 12 24 14 5 20 11 10 5 5 3 5 6
36 35 33 31 29 28 18 3 3 22 29 11 17 14 14 18 11 2 4 7 11 5 3 4 6 3 7 6 4 7 8 6 8 6 14 16 11 8 12 6 4 11 6 5
38 36 35 35 34 32 31 4 5 4 11 9 13 20 19 18 12 23 20 11 7 6 8 6 7 3 6 7 2 4 1 7 15 18 6 5 5 8 15 12 5 5 8 6
39 38 37 36 37 37 33 4 6 6 10 17 16 12 9 23 19 14 6 8 21 6 5 2 11 6 3 3 6 5 5 7 12 18 16 17 6 9 10 14 9 10 8 12
39 38 38 38 40 42 26 5 5 4 1 15 22 21 25 23 15 12 14 17 10 15 18 8 13 10 10 5 2 3 7 5 14 19 19 17 19 17 19 17 6 6 7 8
40 40 40 41 44 44 15 18 7 4 10 12 16 32 22 16 16 13 16 13 13 16 7 10 9 5 5 0 2 2 4 6 9 6 6 13 8 25 22 8 6 5 7 8
38 38 40 41 40 44 19 6 5 6 8 17 25 14 22 20 18 19 12 12 11 7 4 3 2 2 4 4 5 5 6 4 1 7 8 13 18 5 10 11 13 13 6 7
29 30 31 36 39 46 30 14 6 4 10 16 18 23 15 16 18 21 17 16 13 10 4 2 4 3 5 5 6 9 5 6 3 3 5 8 12 8 15 15 20 14 10 9
33 34 35 36 38 41 40 25 22 1 3 15 18 14 15 12 15 14 19 15 8 3 1 3 7 5 3 3 5 6 7 7 5 3 6 8 2 11 5 3 6 5 7 10
35 37 38 40 42 44 37 15 32 9 2 3 10 12 16 10 10 5 4 6 9 7 3 2 5 8 6 8 7 5 1 1 3 3 4 8 5 8 5 8 5 4 4 4
37 40 42 44 45 43 41 29 35 20 3 5 5 7 6 9 12 9 3 3 2 4 7 4 5 4 7 2 5 8 7 6 4 2 2 8 4 7 3 2 5 7 8 9
31 34 37 41 46 50 44 15 32 28 3 2 3 23 14 11 8 8 6 5 5 5 4 4 3 2 0 6 7 3 2 6 6 7 8 15 5 2 1 3 4 4 4 9
31 32 33 36 42 48 50 27 31 20 4 1 2 8 8 11 12 7 5 2 4 4 3 4 4 4 5 6 5 5 5 4 4 3 8 14 7 4 10 11 7 5 2 4
29 34 35 37 40 46 49 27 30 25 4 2 4 18 13 10 7 9 6 2 3 4 2 3 3 3 3 4 3 5 8 7 8 5 5 5 4 5 6 9 6 4 2 2
29 36 34 36 39 40 37 25 35 31 8 6 3 6 22 21 23 23 23 7 3 2 0 1 3 3 2 0 2 2 5 4 3 7 7 5 6 7 6 7 4 3 3 1
19 30 39 38 40 41 28 5 27 33 7 3 3 3 5 9 14 8 5 4 3 3 3 2 3 4 4 4 4 5 9 11 10 5 15 7 4 6 8 3 4 5 6 6
21 25 37 45 44 30 3 5 17 34 20 0 1 2 2 12 5 1 2 3 2 2 1 5 4 2 2 1 3 9 9 13 11 14 9 6 9 4 6 5 6 6 7 8
40 41 45 49 36 15 6 14 40 39 7 2 3 1 3 3 3 2 2 3 3 4 3 2 3 2 2 2 10 12 12 14 8 16 12 6 6 5 7 6 6 11 12 11
40 44 42 24 5 3 7 26 26 13 3 3 3 4 3 1 2 2 1 2 1 1 2 1 3 3 4 8 10 10 11 10 12 11 7 11 12 10 12 10 12 11 10 11
14 11 5 4 4 7 14 9 4 4 4 3 2 0 3 3 1 1 1 2 2 3 4 3 4 3 2 10 9 9 11 11 11 7 9 9 11 11 12 12 9 11 11 11
6 3 3 3 6 4 3 3 2 1 3 2 1 2 3 1 3 2 2 2 2 3 2 3 3 2 5 7 9 10 11 10 9 9 10 10 10 8 7 10 12 12 13 13
11 14 8 5 3 3 5 2 2 2 2 2 2 2 2 2 1 2 1 3 1 2 2 4 3 4 7 8 10 12 11 12 13 14 13 14 15 13 11 12 12 15 20 20
5 5 4 3 4 8 5 2 3 3 3 4 3 2 1 2 1 2 2 3 2 2 4 3 2 5 7 8 7 11 12 13 14 15 19 21 20 22 18 13 19 22 23 22
4 4 6 4 5 4 3 2 2 2 2 4 2 1 1 1 1 1 3 4 4 4 3 3 4 7 6 8 9 10 12 12 13 14 17 17 19 19 23 23 22 24 23 23
5 5 5 5 2 2 2 3 2 3 2 2 2 0 3 4 3 4 4 4 5 4 2 2 3 7 9 10 10 10 10 10 11 15 14 18 20 21 23 24 25 26 25 25
4 6 4 4 3 4 4 3 3 3 4 1 1 3 3 5 3 4 6 4 4 2 2 3 6 10 10 9 10 10 13 15 16 19 21 22 22 22 23 26 27 26 26 26
5 3 5 5 2 3 3 3 4 3 2 2 3 5 3 2 3 4 4 3 3 5 6 6 10 11 10 11 13 18 20 20 20 21 22 22 21 22 23 20 23 26 26 27
Wind_Direction
270 263 257 249 244 233 223 185 206 172 163 192 214 228 212 255 288 220 248 306 280 208 317 269 252 230 264 2 332 279 222 219 228 244 257 249 232 213 186 174 220 191 166 253
263 258 252 248 242 228 201 198 153 178 166 207 218 228 231 247 261 311 247 217 224 211 218 274 268 257 293 99 44 38 347 241 240 257 257 255 238 220 211 176 137 207 196 252
259 253 248 240 239 231 210 139 166 181 199 232 215 218 227 222 210 243 256 280 304 291 269 240 264 293 311 333 65 74 121 221 255 230 244 193 209 211 218 199 181 198 220 210
255 250 244 241 232 230 207 155 213 192 203 209 216 201 210 221 224 219 239 249 237 253 279 235 245 281 290 314 16 41 50 279 248 254 221 233 247 265 238 218 200 195 209 218
253 249 246 241 237 222 203 169 180 186 84 185 204 220 222 224 208 217 212 242 254 215 234 229 291 317 302 210 304 87 22 302 326 246 235 224 222 242 260 249 211 245 226 217
248 243 240 234 228 227 207 207 192 181 195 180 191 215 219 220 214 240 237 241 240 253 266 260 255 240 266 22 148 92 125 334 352 290 253 228 235 209 232 251 213 180 231 232
245 241 235 234 212 204 203 178 143 195 204 200 216 200 208 213 218 218 238 238 232 243 246 128 72 320 224 213 237 162 154 164 335 293 291 239 256 169 223 253 253 239 217 239
236 232 228 221 216 208 202 191 180 196 220 217 221 212 205 199 218 229 241 236 245 269 266 248 267 282 299 211 217 207 183 139 152 271 279 278 241 250 212 226 245 235 216 231
237 230 225 222 219 214 206 203 199 249 236 220 211 205 199 197 209 225 241 246 249 333 65 171 218 227 186 192 118 105 95 123 142 134 280 259 356 206 243 111 256 255 193 200
241 235 228 223 219 215 210 199 190 186 253 268 187 198 200 182 172 207 185 199 235 178 193 210 241 247 198 225 176 170 167 75 161 185 246 277 256 297 161 194 258 323 306 257
241 235 228 223 220 213 202 208 187 186 183 274 302 227 150 180 199 194 181 124 239 151 187 192 222 212 208 152 188 173 173 168 160 96 277 268 288 48 26 263 324 331 2 345
237 232 227 222 217 208 202 199 189 187 167 264 237 263 276 199 160 194 193 193 163 187 154 205 192 225 224 158 229 198 223 193 185 170 201 249 277 112 70 227 243 321 4 354
232 223 219 217 213 207 194 195 171 178 161 359 280 223 206 195 193 124 192 243 202 163 165 195 194 219 151 223 227 236 241 176 207 168 240 236 244 193 195 216 211 204 82 9
225 221 218 212 206 198 192 175 172 166 114 205 228 207 261 194 188 214 267 212 116 133 129 196 201 175 178 193 196 213 222 173 213 235 260 271 233 233 209 257 213 209 147 109
221 211 201 194 192 185 175 163 170 174 156 173 217 156 210 217 194 179 216 198 196 104 67 294 231 209 98 291 18 262 357 325 202 241 230 197 226 223 207 203 202 151 200 49
147 168 175 175 172 162 138 137 183 184 188 113 155 227 152 176 178 162 195 205 170 151 140 241 262 255 149 164 195 56 26 323 354 328 308 225 14 35 9 57 15 5 344 324
117 157 162 162 155 138 127 183 162 181 177 335 86 7 49 160 121 188 153 148 190 142 212 189 197 309 8 121 171 17 360 332 323 340 349 30 26 16 33 45 26 21 25 18
113 122 125 141 142 144 63 103 160 166 202 128 135 303 75 102 147 148 130 161 199 188 199 135 148 33 89 66 359 356 357 334 335 342 7 8 349 24 21 20 46 49 36 19
108 99 106 106 80 99 133 101 117 142 152 125 94 134 166 7 140 130 147 151 133 348 115 212 129 63 36 353 344 357 350 346 330 319 13 24 45 33 27 31 37 57 39 39
102 83 41 40 40 101 120 34 30 18 357 43 93 119 79 62 20 330 82 60 164 151 222 105 71 80 51 4 357 348 347 344 344 354 10 7 34 38 33 39 47 62 65 64
64 60 57 89 41 69 55 88 100 44 26 36 219 160 142 202 136 165 195 162 175 152 197 105 78 75 13 1 12 8 2 359 12 29 37 37 44 50 61 57 58 65 69 70
100 114 97 51 37 55 81 83 39 65 99 37 11 22 98 158 168 134 181 167 126 126 67 69 65 20 13 33 26 23 19 30 44 48 53 55 60 62 68 68 65 67 72 74
66 58 61 33 345 48 48 45 31 50 12 2 355 30 58 58 55 105 134 170 131 77 52 71 42 12 33 44 49 44 40 46 51 53 56 58 58 58 60 67 67 71 70 71
57 51 37 58 12 48 30 346 300 335 1 334 313 269 72 52 108 353 75 39 27 64 67 59 19 18 42 46 50 53 46 47 55 58 62 61 62 63 63 64 70 76 74 73
51 31 40 52 45 331 298 290 341 348 288 321 344 11 43 19 49 12 51 60 64 46 61 65 20 47 49 54 52 54 56 59 62 64 66 66 69 69 66 64 68 72 74 74
61 42 16 346 34 342 347 343 337 336 323 284 345 45 78 54 41 48 22 62 47 60 54 41 58 56 49 56 61 62 62 63 64 63 65 65 62 65 68 65 61 62 67 69
42 27 19 359 351 333 327 323 325 297 342 47 48 48 30 45 55 58 30 46 69 91 74 61 54 57 60 62 61 59 58 54 53 58 60 62 66 71 69 65 61 64 66 68